Date,TemperatureHighF,TemperatureAvgF,TemperatureLowF,DewpointHighF,DewpointAvgF,DewpointLowF,HumidityHigh,HumidityAvg,HumidityLow,PressureMaxIn,PressureMinIn,WindSpeedMaxMPH,WindSpeedAvgMPH,GustSpeedMaxMPH,PrecipitationSumIn
2013-2-1,37,31,25,25,9,-1,67,40,23,0.00,40.00,14,7,30,0.00
2013-2-2,40,30,17,33,13,3,92,53,28,0.00,40.00,9,4,15,0.00
2013-2-3,47,38,28,33,25,17,98,63,36,0.00,40.00,10,4,21,0.00
2013-2-4,49,36,25,24,21,14,78,55,35,0.00,40.00,7,4,12,0.00
2013-2-5,61,43,29,35,28,23,85,60,26,0.00,40.00,10,3,20,0.00
2013-2-6,62,48,35,34,24,18,83,45,18,0.00,40.00,6,3,12,0.00
2013-2-7,44,40,37,38,31,19,97,74,37,0.00,40.00,4,3,9,0.75
2013-2-8,56,45,37,45,35,23,99,73,33,0.00,40.00,9,5,20,0.57
2013-2-9,58,41,28,25,20,15,78,47,19,0.00,40.00,6,3,12,0.00
2013-2-10,53,42,30,40,24,19,96,55,27,0.00,40.00,8,3,14,0.14
2013-2-11,56,48,41,55,46,33,100,94,58,0.00,40.00,6,3,10,0.20
2013-2-12,59,49,42,37,28,19,79,47,21,0.00,40.00,7,3,12,0.01
2013-2-13,47,42,36,43,40,32,100,94,62,0.00,40.00,5,2,11,0.17
2013-2-14,52,39,27,34,30,26,98,71,39,0.00,40.00,8,3,15,0.01
2013-2-15,60,43,27,38,30,26,98,68,29,0.00,40.00,9,4,18,0.00
2013-2-16,44,35,28,33,23,11,95,61,42,0.00,40.00,8,3,19,0.00
2013-2-17,39,29,23,16,7,3,66,40,23,0.00,40.00,10,6,22,0.01
2013-2-18,52,35,19,25,17,9,71,49,29,0.00,40.00,9,4,15,0.01
2013-2-19,50,41,34,41,29,8,95,66,25,0.00,40.00,10,5,16,0.08
2013-2-20,53,40,25,14,7,1,57,28,13,0.00,40.00,8,4,13,0.01
2013-2-21,57,39,22,25,14,8,68,40,18,0.00,40.00,4,2,11,0.00
2013-2-22,45,35,33,36,34,25,100,95,46,0.00,40.00,3,2,10,0.50
2013-2-23,47,40,34,42,38,34,100,94,81,0.00,40.00,4,2,8,0.23
2013-2-24,61,47,32,42,29,18,100,59,19,0.00,40.00,9,4,20,0.01
2013-2-25,43,38,34,25,23,20,66,55,47,0.00,40.00,3,2,8,0.00
2013-2-26,39,35,31,38,32,21,100,90,53,0.00,40.00,5,3,16,1.28
2013-2-27,56,43,35,41,36,34,100,79,46,0.00,40.00,9,4,17,0.05
2013-2-28,44,41,36,35,25,22,74,53,43,0.00,40.00,8,5,18,0.00